Preview of NWS' New Version of Forecast
This preview is not operational and should not be used for support decisions.

Regional Weather Roundup (RWR)

Issued by National Weather Service (NWS)

                            
000
ASUS45 KBOU 210410
RWRCO 

WEATHER ROUNDUP FOR COLORADO
NATIONAL WEATHER SERVICE DENVER/BOULDER CO
1000 PM MDT SAT APR 20 2019

NOTE: "FAIR" INDICATES FEW OR NO CLOUDS BELOW 12000 FEET WITH NO
SIGNIFICANT WEATHER AND/OR OBSTRUCTIONS TO VISIBILITY.

COZ001>005-013-030-031-210500-
...NORTHWEST COLORADO...
  
CITY           SKY/WX    TMP DP  RH WIND       PRES   REMARKS
CRAIG          FAIR      53  31  42 CALM      29.88R                  
HAYDEN         FAIR      52  28  39 E3        29.91S                  
MEEKER         CLOUDY    54  30  40 E13       29.90R                  
RANGELY        FAIR      56  31  37 S5        29.82R                  
RABBIT EARS PA FAIR      36  27  69 S7G21     30.08F                  
STEAMBOAT SPGS FAIR      49  28  45 CALM      29.92R                  
WALDEN         CLOUDY    43  27  52 S9        29.99F                  
$$

COZ006>008-011-210500-
...WEST CENTRAL VALLEYS...
  
CITY           SKY/WX    TMP DP  RH WIND       PRES   REMARKS
GRAND JUNCTION FAIR      57  33  40 SE12      29.83R                  
MONTROSE       FAIR      54  32  43 SE12      29.92R                  
EAGLE          MOCLDY    51  32  48 S6        29.97S                  
RIFLE          FAIR      56  34  43 SE13      29.88S                  
DELTA          FAIR      53  38  58 NE6       29.88S                  
NUCLA          FAIR      59  27  29 E6        29.92R                  
$$

COZ017>023-064>068-210500-
...SOUTHWEST COLORADO...
  
CITY           SKY/WX    TMP DP  RH WIND       PRES   REMARKS
DURANGO        FAIR      47  24  40 N6        29.96R                  
CORTEZ         FAIR      46  30  53 NE9       29.91S                  
PAGOSA SPRINGS MOCLDY    45  33  62 CALM      30.03S                  
TELLURIDE      FAIR      43  28  56 CALM      30.08S                  
WOLF CREEK PAS FAIR      28  27  93 SW10      30.22S WCI  19          
$$

COZ009-010-012-014-032>034-037-058>063-210500-
...CENTRAL COLORADO...
  
CITY           SKY/WX    TMP DP  RH WIND       PRES   REMARKS
ASPEN          CLOUDY    46  30  53 NW3       29.99R                  
BUENA VISTA    FAIR      47  28  46 W10       30.00F                  
COPPER MTN     FAIR      36  27  69 SW7       30.17F                  
BERTHOUD PASS  FAIR      27  14  59 NW16G24   30.15F WCI  14          
COTTONWOOD PAS FAIR      41  28  60 W18G25    30.06F                  
GUNNISON       FAIR      39  33  79 NE5       30.04R                  
GRANBY         FAIR      42  30  62 NE6       30.02F                  
KREMMLING      MOCLDY    48  30  49 S3        29.98F                  
LEADVILLE      CLOUDY    35  26  69 E3        30.07F                  
MONARCH PASS   FAIR      30  27  86 W20       30.26F WCI  18          
SALIDA         FAIR      51  30  45 W8        30.07S                  
SUNLIGHT       FAIR      32  27  80 SW10G17   30.13S WCI  24          
WILKERSON PASS FAIR      34  25  69 W6        30.14S WCI  29          
$$

COZ069>075-210500-
...SAN LUIS VALLEY/SANGRE DE CRISTO MOUNTAINS...
  
CITY           SKY/WX    TMP DP  RH WIND       PRES   REMARKS
ALAMOSA        FAIR      42  27  55 S7        30.02S                  
DEL NORTE      FAIR      42  31  63 W8        30.04S                  
LA VETA PASS   NOT AVBL                                               
SAGUACHE       FAIR      46  30  53 CALM      30.03S                  
$$

COZ035-036-038>040-210500-
...NORTHERN COLORADO FRONT RANGE...
  
CITY           SKY/WX    TMP DP  RH WIND       PRES   REMARKS
DENVER INTL AP CLOUDY    66  28  24 S7G17     29.80R                  
AURORA         MOCLDY    63  28  26 SW6       29.80F                  
FRONT RANGE AP CLOUDY    67  28  23 W6        29.81S                  
ERIE MUNI ARPT FAIR      63  27  25 SW6       29.83S                  
BOULDER MUN AP FAIR      64  28  25 SW9       29.79R                  
CENTENNIAL     MOCLDY    65  26  23 CALM      29.80F                  
BROOMFIELD     MOCLDY    64  27  24 W10       29.81F                  
FORT COLLINS   FAIR      63  31  30 N7        29.77S                  
LONGMONT       FAIR      65  29  25 SW5       29.79S                  
$$

COZ041-046-047-076>085-087-088-210500-
...PIKES PEAK/PALMER DIVIDE AND SOUTHERN FOOTHILLS...
  
CITY           SKY/WX    TMP DP  RH WIND       PRES   REMARKS
COLO. SPRINGS  MOCLDY    62  27  26 NW9       29.86R                  
A. F. ACADEMY  FAIR      60  24  25 W18       29.86R                  
SCHRIEVER AFB  NOT AVBL                                               
CHEYENNE MTN   CLOUDY    60  21  22 NW8G26    29.83F                  
ELLICOTT         N/A    N/A N/A N/A SW10      29.84R                  
FALCON         FAIR      58  24  26 NW12G24   29.90R                  
FORT CARSON    FAIR      64  25  22 SW6       29.84R                  
LIMON          MOCLDY    66  23  19 S8        29.78R                  
MONUMENT HILL  FAIR      54  28  37 W12G18    29.91R                  
CANON CITY     NOT AVBL                                               
WALSENBURG     NOT AVBL                                               
TRINIDAD       FAIR      61  31  32 W15G26    29.87R                  
$$

COZ042>045-048>051-090-091-210500-
...NORTHEAST COLORADO...
  
CITY           SKY/WX    TMP DP  RH WIND       PRES   REMARKS
GREELEY ARPT   FAIR      65  31  28 NW13      29.75R                  
AKRON          FAIR      65  30  27 E6        29.70F                  
BURLINGTON     FAIR      63  28  26 S12       29.70S                  
WRAY           FAIR      68  36  30 SE12      29.67S                  
YUMA           NOT AVBL                                               
STERLING       FAIR      63  32  31 CALM      29.67S                  
HOLYOKE        FAIR      63  37  39 SE9       29.68S                  
FORT MORGAN    NOT AVBL                                               
$$

COZ086-089-092>099-210500-
...SOUTHEAST COLORADO...
  
CITY           SKY/WX    TMP DP  RH WIND       PRES   REMARKS
PUEBLO         FAIR      68  31  25 W15       29.78R                  
LA JUNTA       FAIR      71  30  21 W13       29.76R                  
LAMAR          FAIR      73  27  18 SE8       29.66F                  
SPRINGFIELD      N/A     60  26  27 SW12      29.74R                  
$$